{"data":{"norad_id":52756,"epoch":"2026-05-24T22:42:28.497024Z","epoch_age_seconds":79947,"freshness":"FRESH","line1":"1 52756U 22057AA  26144.94616316  .00016771  00000+0  29605-3 0  9990","line2":"2 52756  97.6578 301.4840 0005870 143.9568 216.2079 15.50438792222743","mean_motion":15.50438792,"eccentricity":0.000587,"inclination_deg":97.6578,"raan_deg":301.484,"arg_perigee_deg":143.9568,"mean_anomaly_deg":216.2079,"bstar":0.00029605,"rev_number":22274,"period_min":92.876933125652,"perigee_km":411.45616046011,"apogee_km":419.43182454531,"semimajor_km":6793.5809925027,"source":"CELESTRAK","updated_at":"2026-05-25T13:38:24.928664Z"}}